Location: Ergnies
(50.0854°N, 2.0375°E)
Time: 18:55:42
(UTC+00:00)

Cosmos 1633 Rocket - Pass Details

Date: 14 January 2026
Orbit: 600 x 616 km, 82.5° (Epoch: 13 February)

Event Time Altitude Azimuth Distance (km) Brightness Sun altitude
Rises 07:03:46 0° 202° (SSW) 2,861 6.5 -6.7°
Reaches altitude 10° 07:06:02 10° 207° (SSW) 1,959 5.6 -6.4°
Maximum altitude 07:10:15 51° 284° (WNW) 770 3.2 -5.7°
Drops below altitude 10° 07:14:30 10° 1° (N) 1,964 5.4 -5.1°
Sets 07:16:46 0° 7° (N) 2,870 6.3 -4.8°
